{"data":{"norad_id":87334,"epoch":"2026-09-17T23:24:38.576736Z","epoch_age_seconds":232417,"freshness":"STALE","line1":"1 87334U          26260.97544649  .00013787  00000+0  67914-2 0  9993","line2":"2 87334  90.0064 271.7203 0067136  72.2793 288.5708 14.16283708426056","mean_motion":14.16283708,"eccentricity":0.0067136,"inclination_deg":90.0064,"raan_deg":271.7203,"arg_perigee_deg":72.2793,"mean_anomaly_deg":288.5708,"bstar":0.0067914,"rev_number":42605,"period_min":101.674543869,"perigee_km":789.50255726168,"apogee_km":886.39438006653,"semimajor_km":7216.0854686641,"source":"CELESTRAK","updated_at":"2026-09-20T09:00:32.473410Z"}}